Track COSMOS 1510 now! 10-day predictions COSMOS 1510 is classified as:
1 14521U 83115A 19053.64860580 -.00000014 00000-0 24388-4 0 9991 2 14521 73.6162 290.6344 0028099 199.9918 187.8516 12.41159564597816